Weather in Vartemyagi

Russia / Saint-Petersburg and Leningrad Oblast     60°10′21″N   30°19′14″E
temp.,
°C
wind,
m/s
gust,
m/s
humid.,
%
clouds,
%
prec.,
mm/h
press.,
hPa
HPBL,
m
17 april, sat
sat1700:00+4ene4128566 0.0 1031358
03:00+2ene4118912 0.0 1031276
06:00+1ne411915 0.0 1031238
09:00+6ene511695 0.0 1031413
12:00+9ene510525 0.0 1031613
15:00+11ene59485 0.0 1031810
18:00+10ne59555 0.0 1030652
21:00+6ne412715 0.0 1031355
18 april, sun
sun1800:00+4ene311825 0.0 1031315
03:00+3ne39885 0.0 1031225
06:00+2ne39905 0.0 1031207
09:00+6ene48694 0.0 1032377
12:00+10ene48540 0.0 1031823
15:00+11ene58500 0.0 10311027
18:00+10ne48560 0.0 1030842
21:00+6ne413725 0.0 1031418
19 april, mon
mon1900:00+5ene398249 0.0 1031243
03:00+4ne379094 0.0 1031149
06:00+3ne379199 0.0 1031179
09:00+7ene477634 0.0 1032401
12:00+9ene47565 0.0 1031807
15:00+10ene57480 0.0 1030964
18:00+9ene47470 0.0 1029832
21:00+5ne410645 0.0 1029259
20 april, tue
tue2000:00+3ene38745 0.0 1028171
03:00+2ene2577100 0.0 1027102
06:00+2ene2778100 0.0 1026157
09:00+5e476326 0.0 1025391
12:00+8e5744100 0.0 10231296
15:00+9e46395 0.0 10211560
18:00+9ene46445 0.0 1019912
21:00+5ne3958100 0.0 1018204
21 april, wed
wed2100:00+5ene3972100 0.0 1015286
03:00+4ne41175100 0.0 1011399
06:00+3ne51277100 0.0 1007555
09:00+1ene51396100 1.4 1004489
12:00+1ene41196100 2.1 1002444
15:00+2ene3896100 3.1 999391
18:00+2ne3697100 0.7 998300
21:00+2n2398100 0.9 997151